64P/Swift-Gehrels (2009)

Japanese version
Home page
Total 6,336 html files since Dec. 4, 1995
Updated on October 5, 2005

---------------------------------------------------------------------

* Profile

* Orbital Elements

Epoch 2009 June 18.0 TT = JDT 2455000.5  
T 2009 June 14.29410 TT                                 Muraoka 
q   1.3770112            (2000.0)            P               Q
n   0.10551124     Peri.   96.30475     +0.78774809     -0.60130544
a   4.4354419      Node   300.74117     +0.48554549     +0.73971509
e   0.6895436      Incl.    8.95145     +0.37907588     +0.30208171
P   9.34
>From 57 observations 1973-2001, mean residual 0".89.  Nongravitational
   parameters A1 = +0.27 +/- 0.02, A2 = +0.0255 +/- 0.0004.

* Finding Charts

* Magnitudes Graph

        m1 = 9.5 + 5 log d + 15.0 log r

---------------------------------------------------------------------

The orbital elements are calculated by Kenji Muraoka.
The charts are made with StellaNavigator Ver.2.0 for Windows (AstroArts / ASCII).
The magnitudes graphs are made with Comet for Windows.

---------------------------------------------------------------------

Copyright(C) 1995-2008 Seiichi Yoshida (comet@aerith.net). All rights reserved.